Regional Weather Roundup
Issued by NWS Raleigh/Durham, NC

Home | Current Version | Previous Version | Text Only | Print | Product List | Glossary On
Versions: 1 2 3 4 5 6 7 8 9 10 11 12 13 14 15 16 17 18 19 20 21 22 23 24 25 26 27 28
000
ASUS42 KRAH 031110
RWRRAH
NORTH CAROLINA WEATHER ROUNDUP
NATIONAL WEATHER SERVICE RALEIGH NC
700 AM EDT TUE AUG 03 2021

NOTE: "FAIR" INDICATES FEW OR NO CLOUDS BELOW 12,000 FEET WITH NO
SIGNIFICANT WEATHER AND/OR OBSTRUCTIONS TO VISIBILITY.

NCZ001-053-055-056-065-067-031200-
WESTERN NORTH CAROLINA

CITY           SKY/WX    TMP DP  RH WIND       PRES   REMARKS
ASHEVILLE      CLOUDY    67  63  87 S5        30.08R
JEFFERSON      CLOUDY    61  61  98 CALM      30.15S
MORGANTON      CLOUDY    70  64  83 N3        30.10R
HICKORY        CLOUDY    70  64  81 NE8       30.05R
WILKESBORO     NOT AVBL
RUTHERFORDTON  NOT AVBL
MOUNT AIRY     CLOUDY    68  62  80 NE7       30.10S
BOONE            N/A     61  60  96 E3        30.14S
$$

NCZ021-022-025-041-071-084-088-031200-
CENTRAL NORTH CAROLINA

CITY           SKY/WX    TMP DP  RH WIND       PRES   REMARKS
CHARLOTTE      LGT RAIN  71  68  90 N6        30.03R FOG
GREENSBORO     LGT RAIN  68  63  84 NE8       30.05S
WINSTON-SALEM  CLOUDY    67  63  87 NE6       30.07S
RALEIGH-DURHAM CLOUDY    70  64  81 NE6       30.04R
FORT BRAGG     CLOUDY    71  68  90 NE6       29.99R
FAYETTEVILLE   CLOUDY    71  66  84 NE6       30.00R
BURLINGTON     CLOUDY    70  62  76 NE6       30.05R
ROXBORO        CLOUDY    64  63  94 N5        30.09R
HENDERSON      NOT AVBL
LOUISBURG      CLOUDY    68  63  83 N5        30.08R
LAURINBURG     CLOUDY    73  68  84 NE9       30.00R
$$

NCZ011-015-027-028-043-044-047-080-103-031200-
NORTHEASTERN NORTH CAROLINA

CITY           SKY/WX    TMP DP  RH WIND       PRES   REMARKS
ROCKY MT-WILSO MOCLDY    71  65  81 NE6       30.04R
GREENVILLE     MOCLDY    70  68  94 NE5       30.04R
WASHINGTON     CLOUDY    72  67  85 N9        30.03R
ELIZABETH CITY CLOUDY    75  67  76 NE15      30.02S
MANTEO         MOCLDY    74  70  87 E17G24    30.01S
CAPE HATTERAS  MOCLDY    75  73  93 NE5       29.98R
$$

NCZ078-087-090-091-093-098-101-031200-
SOUTHEASTERN NORTH CAROLINA

CITY           SKY/WX    TMP DP  RH WIND       PRES   REMARKS
GOLDSBORO      CLOUDY    67  58  74 NE5       29.99R
KINSTON        CLEAR     68  66  94 NE6       30.01S
KENANSVILLE    MOCLDY    68  64  88 CALM      30.00R
NEW BERN       MOCLDY    72  67  84 N10       30.01R
CHERRY POINT   CLOUDY    75  72  90 NE14      29.99R
BEAUFORT       CLOUDY    76  74  93 NE5       29.97R
JACKSONVILLE   CLOUDY    72  69  90 N6        29.98R
WILMINGTON     CLOUDY    74  72  93 NE12      29.97R FOG
$$




USA.gov is the U.S. government's official web portal to all federal, state and local government web resources and services.